Powrót do katalogu

SPACENET 3R

AktywnyŁącznośćGEO
NORAD 18951·PAYLOAD·🇺🇸 United States

Wystrzelony Mar 11, 1988 z Guiana Space Centre

Loading…

TLE

ŚwieżeSource: Space-Track

Epoka: Sep 11, 2026, 01:53 UTC

1 18951U 88018A   26254.07873677 -.00000252  00000-0  00000-0 0  9993
2 18951  14.7122 359.0214 0004529 248.5773 112.0687  0.99666861125478

Śledź SPACENET 3R w czasie rzeczywistym z AllMySat

Download on the App Store